• In Kazakhstan
  • List of Countries
  • For 7 days
  • Water Temperature
  • Satellite Maps
  • Weather Map
  • News
  • Weather Widgets
  • user-avatar
    Login

    Hourly Weather Melbourne

    Today, 27 June, Thursday

    Time Temperature Precipitation Wind Pressure Humidity
    00:00 +9°C° 0 mm 3 mps 773 mmHg 78%
    01:00 +8°C° 0 mm 3 mps 773 mmHg 78%
    02:00 +8°C° 0 mm 3 mps 772 mmHg 77%
    03:00 +8°C° 0 mm 3 mps 772 mmHg 76%
    04:00 +7°C° 0 mm 4 mps 772 mmHg 73%
    05:00 +8°C° 0 mm 4 mps 772 mmHg 73%
    06:00 +8°C° 0 mm 4 mps 772 mmHg 73%
    07:00 +8°C° 0 mm 4 mps 773 mmHg 73%
    08:00 +9°C° 0 mm 5 mps 773 mmHg 70%
    09:00 +10°C° 0 mm 5 mps 773 mmHg 67%
    10:00 +12°C° 0 mm 5 mps 773 mmHg 65%
    11:00 +13°C° 0 mm 5 mps 772 mmHg 62%
    12:00 +15°C° 0 mm 5 mps 771 mmHg 59%
    13:00 +16°C° 0 mm 5 mps 771 mmHg 56%
    14:00 +16°C° 0 mm 5 mps 770 mmHg 56%
    15:00 +17°C° 0 mm 4 mps 770 mmHg 56%
    16:00 +15°C° 0 mm 4 mps 770 mmHg 56%
    17:00 +14°C° 0 mm 4 mps 770 mmHg 61%
    18:00 +13°C° 0 mm 4 mps 770 mmHg 66%
    19:00 +12°C° 0 mm 4 mps 770 mmHg 72%
    20:00 +12°C° 0 mm 4 mps 770 mmHg 72%
    21:00 +12°C° 0 mm 4 mps 770 mmHg 72%
    22:00 +11°C° 0 mm 4 mps 770 mmHg 72%
    23:00 +12°C° 0 mm 4 mps 770 mmHg 73%

    Tomorrow, 28 June, Friday

    Time Temperature Precipitation Wind Pressure Humidity
    00:00 +12°C° 0 mm 5 mps 770 mmHg 73%
    01:00 +12°C° 0 mm 5 mps 769 mmHg 73%
    02:00 +12°C° 0 mm 5 mps 769 mmHg 73%
    03:00 +12°C° 0 mm 5 mps 769 mmHg 74%
    04:00 +11°C° 0 mm 6 mps 769 mmHg 74%
    05:00 +10°C° 0 mm 6 mps 769 mmHg 74%
    06:00 +10°C° 0 mm 6 mps 769 mmHg 74%
    07:00 +10°C° 0 mm 6 mps 769 mmHg 75%
    08:00 +11°C° 0 mm 6 mps 769 mmHg 71%
    09:00 +13°C° 0 mm 6 mps 768 mmHg 68%
    10:00 +14°C° 0 mm 7 mps 768 mmHg 65%
    11:00 +15°C° 0 mm 7 mps 767 mmHg 63%
    12:00 +16°C° 0 mm 7 mps 767 mmHg 60%
    13:00 +17°C° 0 mm 7 mps 766 mmHg 57%
    14:00 +17°C° 0 mm 7 mps 765 mmHg 59%
    15:00 +17°C° 0 mm 7 mps 765 mmHg 61%
    16:00 +16°C° 0 mm 6 mps 764 mmHg 63%
    17:00 +16°C° 0 mm 6 mps 764 mmHg 66%
    18:00 +15°C° 0 mm 6 mps 764 mmHg 68%
    19:00 +15°C° 0 mm 6 mps 764 mmHg 71%
    20:00 +15°C° 0.1 mm 6 mps 764 mmHg 73%
    21:00 +15°C° 0.1 mm 6 mps 763 mmHg 76%
    22:00 +14°C° 0.1 mm 6 mps 763 mmHg 79%
    23:00 +14°C° 0.1 mm 7 mps 763 mmHg 79%

    Day after tomorrow, 29 June, Saturday

    Time Temperature Precipitation Wind Pressure Humidity
    00:00 +14°C° 0.1 mm 7 mps 762 mmHg 79%
    01:00 +14°C° 0.1 mm 7 mps 762 mmHg 79%
    02:00 +14°C° 0.2 mm 7 mps 761 mmHg 79%
    03:00 +13°C° 0.2 mm 8 mps 761 mmHg 79%
    04:00 +13°C° 0.2 mm 8 mps 760 mmHg 79%
    05:00 +13°C° 0.4 mm 8 mps 760 mmHg 80%
    06:00 +13°C° 0.4 mm 8 mps 759 mmHg 81%
    07:00 +14°C° 0.4 mm 7 mps 759 mmHg 82%
    08:00 +12°C° 0.7 mm 8 mps 758 mmHg 82%
    09:00 +12°C° 0.7 mm 8 mps 758 mmHg 82%
    10:00 +12°C° 0.7 mm 8 mps 757 mmHg 81%
    11:00 +12°C° 1.3 mm 8 mps 756 mmHg 82%
    12:00 +12°C° 1.3 mm 8 mps 755 mmHg 83%
    13:00 +12°C° 1.3 mm 8 mps 754 mmHg 83%
    14:00 +12°C° 2.9 mm 8 mps 753 mmHg 84%
    15:00 +12°C° 2.9 mm 7 mps 753 mmHg 86%
    16:00 +12°C° 2.9 mm 7 mps 752 mmHg 87%
    17:00 +11°C° 1.5 mm 7 mps 752 mmHg 84%
    18:00 +10°C° 1.5 mm 6 mps 753 mmHg 81%
    19:00 +10°C° 1.5 mm 6 mps 753 mmHg 78%
    20:00 +10°C° 0.2 mm 6 mps 754 mmHg 78%
    21:00 +9°C° 0.2 mm 6 mps 754 mmHg 78%
    22:00 +9°C° 0.2 mm 6 mps 754 mmHg 78%
    23:00 +9°C° 0.2 mm 6 mps 755 mmHg 78%

    30 June, Sunday

    Time Temperature Precipitation Wind Pressure Humidity
    00:00 +9°C° 0.2 mm 7 mps 756 mmHg 78%
    01:00 +9°C° 0.2 mm 7 mps 756 mmHg 78%
    02:00 +8°C° 0.1 mm 7 mps 757 mmHg 77%
    03:00 +8°C° 0.1 mm 6 mps 757 mmHg 76%
    04:00 +7°C° 0.1 mm 5 mps 758 mmHg 75%
    05:00 +7°C° 0 mm 5 mps 759 mmHg 75%
    06:00 +7°C° 0 mm 5 mps 760 mmHg 74%
    07:00 +5°C° 0 mm 6 mps 761 mmHg 74%
    08:00 +7°C° 0 mm 6 mps 761 mmHg 71%
    09:00 +8°C° 0 mm 6 mps 762 mmHg 69%
    10:00 +9°C° 0 mm 6 mps 762 mmHg 67%
    11:00 +9°C° 0 mm 6 mps 762 mmHg 63%
    12:00 +10°C° 0 mm 6 mps 762 mmHg 59%
    13:00 +11°C° 0 mm 6 mps 762 mmHg 55%
    14:00 +10°C° 0 mm 5 mps 762 mmHg 56%
    15:00 +10°C° 0 mm 5 mps 762 mmHg 57%
    16:00 +11°C° 0 mm 4 mps 762 mmHg 58%
    17:00 +11°C° 0 mm 4 mps 763 mmHg 62%
    18:00 +9°C° 0 mm 5 mps 763 mmHg 65%
    19:00 +9°C° 0 mm 5 mps 763 mmHg 69%
    20:00 +9°C° 0 mm 5 mps 763 mmHg 71%
    21:00 +8°C° 0 mm 5 mps 763 mmHg 73%
    22:00 +8°C° 0 mm 5 mps 764 mmHg 75%
    23:00 +8°C° 0 mm 5 mps 764 mmHg 76%

    1 July, Monday

    Time Temperature Precipitation Wind Pressure Humidity
    00:00 +8°C° 0 mm 5 mps 764 mmHg 76%
    01:00 +8°C° 0 mm 5 mps 764 mmHg 77%
    02:00 +8°C° 0 mm 5 mps 764 mmHg 76%
    03:00 +8°C° 0 mm 5 mps 763 mmHg 75%
    04:00 +8°C° 0 mm 5 mps 763 mmHg 74%
    05:00 +8°C° 0 mm 6 mps 764 mmHg 73%
    06:00 +8°C° 0 mm 6 mps 764 mmHg 72%
    07:00 +8°C° 0 mm 6 mps 764 mmHg 71%
    08:00 +8°C° 0 mm 7 mps 764 mmHg 69%
    09:00 +9°C° 0 mm 7 mps 764 mmHg 66%
    10:00 +9°C° 0 mm 8 mps 764 mmHg 64%
    11:00 +10°C° 0 mm 8 mps 763 mmHg 63%
    12:00 +10°C° 0 mm 8 mps 763 mmHg 62%
    13:00 +11°C° 0 mm 7 mps 762 mmHg 61%
    14:00 +11°C° 0 mm 7 mps 762 mmHg 62%
    15:00 +10°C° 0 mm 7 mps 761 mmHg 63%
    16:00 +10°C° 0 mm 7 mps 761 mmHg 64%
    17:00 +10°C° 0 mm 7 mps 761 mmHg 64%
    18:00 +10°C° 0 mm 7 mps 761 mmHg 64%
    19:00 +9°C° 0 mm 7 mps 761 mmHg 65%
    20:00 +9°C° 0 mm 7 mps 761 mmHg 64%
    21:00 +9°C° 0 mm 7 mps 760 mmHg 64%
    22:00 +9°C° 0 mm 7 mps 760 mmHg 64%
    23:00 +9°C° 0 mm 7 mps 760 mmHg 63%

    2 July, Tuesday

    Time Temperature Precipitation Wind Pressure Humidity
    00:00 +9°C° 0 mm 7 mps 759 mmHg 62%
    01:00 +9°C° 0 mm 7 mps 759 mmHg 61%
    02:00 +8°C° 0 mm 7 mps 759 mmHg 61%
    03:00 +8°C° 0 mm 7 mps 759 mmHg 62%
    04:00 +8°C° 0 mm 7 mps 758 mmHg 62%
    05:00 +8°C° 0.1 mm 7 mps 759 mmHg 66%
    06:00 +6°C° 0.1 mm 7 mps 760 mmHg 70%
    07:00 +7°C° 0.1 mm 6 mps 760 mmHg 73%
    08:00 +7°C° 0.1 mm 5 mps 761 mmHg 75%
    09:00 +7°C° 0.1 mm 5 mps 761 mmHg 76%
    10:00 +7°C° 0.1 mm 4 mps 762 mmHg 78%
    11:00 +8°C° 0.1 mm 4 mps 762 mmHg 73%
    12:00 +10°C° 0.1 mm 4 mps 762 mmHg 69%
    13:00 +11°C° 0.1 mm 4 mps 762 mmHg 65%
    14:00 +11°C° 0.1 mm 4 mps 762 mmHg 65%
    15:00 +11°C° 0.1 mm 4 mps 763 mmHg 64%
    16:00 +11°C° 0.1 mm 4 mps 763 mmHg 63%
    17:00 +10°C° 0 mm 3 mps 764 mmHg 67%
    18:00 +9°C° 0 mm 3 mps 765 mmHg 71%
    19:00 +8°C° 0 mm 3 mps 765 mmHg 75%
    20:00 +8°C° 0 mm 3 mps 766 mmHg 76%
    21:00 +7°C° 0 mm 3 mps 766 mmHg 78%
    22:00 +7°C° 0 mm 3 mps 767 mmHg 79%
    23:00 +7°C° 0 mm 3 mps 767 mmHg 81%
    Show more